Time,TemperatureF,DewpointF,PressureIn,WindDirection,WindDirectionDegrees,WindSpeedMPH,WindSpeedGustMPH,Humidity,HourlyPrecipIn,Conditions,Clouds,dailyrainin,SoftwareType,DateUTC
2013-08-26 00:11:00,62.0,58.0,30.12,ESE,107,0.0,0.0,86,0.00,,,0.00,,2013-08-26 07:11:00,
2013-08-26 00:21:00,62.0,58.0,30.12,ESE,107,0.0,0.0,86,0.00,,,0.00,,2013-08-26 07:21:00,
2013-08-26 00:42:00,62.0,58.0,30.12,ESE,106,0.0,1.0,86,0.00,,,0.00,,2013-08-26 07:42:00,
2013-08-26 00:52:00,62.0,58.0,30.12,ESE,106,0.0,0.0,86,0.00,,,0.00,,2013-08-26 07:52:00,
2013-08-26 01:11:00,62.0,58.0,30.13,South,189,0.0,0.0,86,0.00,,,0.00,,2013-08-26 08:11:00,
2013-08-26 01:22:00,62.0,58.0,30.13,SSE,153,0.0,0.0,87,0.00,,,0.00,,2013-08-26 08:22:00,
2013-08-26 01:42:00,61.0,57.0,30.13,SSE,155,0.0,0.0,88,0.00,,,0.00,,2013-08-26 08:42:00,
2013-08-26 01:52:00,61.0,57.0,30.13,SSW,193,0.0,0.0,88,0.00,,,0.00,,2013-08-26 08:52:00,
2013-08-26 02:11:00,61.0,57.0,30.13,SSW,193,0.0,0.0,88,0.00,,,0.00,,2013-08-26 09:11:00,
2013-08-26 02:21:00,60.0,56.0,30.13,ESE,103,0.0,0.0,88,0.00,,,0.00,,2013-08-26 09:21:00,
2013-08-26 02:43:00,60.0,57.0,30.13,ESE,103,0.0,0.0,89,0.00,,,0.00,,2013-08-26 09:43:00,
2013-08-26 02:53:00,60.0,57.0,30.13,ESE,103,0.0,0.0,89,0.00,,,0.00,,2013-08-26 09:53:00,
2013-08-26 03:12:00,60.0,57.0,30.13,ESE,103,0.0,0.0,89,0.00,,,0.00,,2013-08-26 10:12:00,
2013-08-26 03:23:00,60.0,57.0,30.14,ESE,102,0.0,0.0,90,0.00,,,0.00,,2013-08-26 10:23:00,
2013-08-26 03:42:00,60.0,57.0,30.14,ESE,108,0.0,0.0,90,0.00,,,0.00,,2013-08-26 10:42:00,
2013-08-26 03:52:00,59.0,57.0,30.15,ESE,108,0.0,0.0,92,0.00,,,0.00,,2013-08-26 10:52:00,
2013-08-26 04:12:00,59.0,57.0,30.15,ESE,108,0.0,0.0,92,0.00,,,0.00,,2013-08-26 11:12:00,
2013-08-26 04:22:00,59.0,57.0,30.15,ESE,108,0.0,0.0,92,0.00,,,0.00,,2013-08-26 11:22:00,
2013-08-26 04:52:00,59.0,57.0,30.15,ESE,107,0.0,0.0,92,0.00,,,0.00,,2013-08-26 11:52:00,
2013-08-26 05:12:00,59.0,57.0,30.15,ESE,107,0.0,0.0,93,0.00,,,0.00,,2013-08-26 12:12:00,
2013-08-26 05:21:00,59.0,57.0,30.16,ESE,107,0.0,0.0,94,0.00,,,0.00,,2013-08-26 12:21:00,
2013-08-26 05:52:00,59.0,57.0,30.16,ESE,107,0.0,0.0,94,0.00,,,0.00,,2013-08-26 12:52:00,
2013-08-26 06:11:00,59.0,57.0,30.16,ESE,107,0.0,0.0,94,0.00,,,0.00,,2013-08-26 13:11:00,
2013-08-26 06:21:00,59.0,57.0,30.16,ESE,107,0.0,0.0,94,0.00,,,0.00,,2013-08-26 13:21:00,
2013-08-26 06:42:00,59.0,57.0,30.16,ESE,107,0.0,0.0,94,0.00,,,0.00,,2013-08-26 13:42:00,
2013-08-26 06:52:00,59.0,57.0,30.17,SE,125,0.0,1.0,94,0.00,,,0.00,,2013-08-26 13:52:00,
2013-08-26 07:11:00,59.0,57.0,30.17,SE,125,0.0,0.0,94,0.00,,,0.00,,2013-08-26 14:11:00,
2013-08-26 07:22:00,59.0,57.0,30.18,SE,125,0.0,0.0,94,0.00,,,0.00,,2013-08-26 14:22:00,
2013-08-26 07:42:00,59.0,58.0,30.18,SE,125,0.0,0.0,95,0.00,,,0.00,,2013-08-26 14:42:00,
2013-08-26 07:52:00,59.0,58.0,30.18,SE,125,0.0,0.0,95,0.00,,,0.00,,2013-08-26 14:52:00,
2013-08-26 08:11:00,59.0,57.0,30.18,SE,125,0.0,0.0,93,0.00,,,0.00,,2013-08-26 15:11:00,
2013-08-26 08:22:00,59.0,57.0,30.19,SE,125,0.0,0.0,93,0.00,,,0.00,,2013-08-26 15:22:00,
2013-08-26 08:47:00,60.0,58.0,30.19,SE,127,0.0,0.0,92,0.00,,,0.00,,2013-08-26 15:47:00,
2013-08-26 08:59:00,60.0,57.0,30.19,SE,127,0.0,0.0,91,0.00,,,0.00,,2013-08-26 15:59:00,
2013-08-26 09:17:00,61.0,58.0,30.19,SSW,206,0.0,0.0,91,0.00,,,0.00,,2013-08-26 16:17:00,
2013-08-26 09:29:00,61.0,58.0,30.19,SSW,206,0.0,0.0,89,0.00,,,0.00,,2013-08-26 16:29:00,
2013-08-26 09:48:00,61.0,57.0,30.19,SSW,206,0.0,0.0,88,0.00,,,0.00,,2013-08-26 16:48:00,
2013-08-26 09:59:00,62.0,58.0,30.19,SSW,207,0.0,0.0,87,0.00,,,0.00,,2013-08-26 16:59:00,
2013-08-26 10:12:00,63.0,58.0,30.19,SSW,198,0.0,0.0,85,0.00,,,0.00,,2013-08-26 17:12:00,
2013-08-26 10:24:00,64.0,59.0,30.19,SSW,200,0.0,0.0,83,0.00,,,0.00,,2013-08-26 17:24:00,
2013-08-26 10:43:00,64.0,58.0,30.19,SSW,201,0.0,0.0,81,0.00,,,0.00,,2013-08-26 17:43:00,
2013-08-26 10:53:00,65.0,58.0,30.19,SSW,202,0.0,1.0,79,0.00,,,0.00,,2013-08-26 17:53:00,
2013-08-26 11:12:00,66.0,59.0,30.19,SSW,195,0.0,4.0,78,0.00,,,0.00,,2013-08-26 18:12:00,
2013-08-26 11:21:00,68.0,60.0,30.19,North,355,0.0,5.0,75,0.00,,,0.00,,2013-08-26 18:21:00,
2013-08-26 11:42:00,68.0,59.0,30.18,SSW,202,0.0,0.0,72,0.00,,,0.00,,2013-08-26 18:42:00,
2013-08-26 11:52:00,69.0,59.0,30.18,South,188,0.0,3.0,71,0.00,,,0.00,,2013-08-26 18:52:00,
2013-08-26 12:11:00,72.0,60.0,30.17,South,169,0.0,1.0,65,0.00,,,0.01,,2013-08-26 19:11:00,
2013-08-26 12:22:00,72.0,59.0,30.16,SSW,202,0.0,0.0,63,0.00,,,0.01,,2013-08-26 19:22:00,
2013-08-26 12:42:00,74.0,61.0,30.16,SSW,192,0.0,2.0,63,0.00,,,0.01,,2013-08-26 19:42:00,
2013-08-26 12:52:00,76.0,59.0,30.15,SSW,194,0.0,4.0,56,0.00,,,0.01,,2013-08-26 19:52:00,
2013-08-26 13:11:00,76.0,60.0,30.15,East,101,0.0,2.0,57,0.00,,,0.01,,2013-08-26 20:11:00,
2013-08-26 13:21:00,78.0,59.0,30.14,ENE,76,0.0,2.0,52,0.00,,,0.01,,2013-08-26 20:21:00,
2013-08-26 13:42:00,78.0,58.0,30.14,NNW,327,0.0,5.0,51,0.00,,,0.01,,2013-08-26 20:42:00,
2013-08-26 13:52:00,79.0,59.0,30.13,East,86,0.0,0.0,50,0.00,,,0.01,,2013-08-26 20:52:00,
2013-08-26 14:11:00,79.0,59.0,30.13,ESE,103,0.0,6.0,50,0.00,,,0.01,,2013-08-26 21:11:00,
2013-08-26 14:22:00,79.0,59.0,30.13,ESE,103,0.0,2.0,50,0.00,,,0.01,,2013-08-26 21:22:00,
2013-08-26 14:55:00,80.0,59.0,30.12,ESE,117,0.0,0.0,48,0.00,,,0.01,,2013-08-26 21:55:00,
2013-08-26 15:16:00,80.0,57.0,30.11,South,182,0.0,3.0,46,0.00,,,0.01,,2013-08-26 22:16:00,
2013-08-26 15:26:00,81.0,58.0,30.11,SSW,203,0.0,4.0,45,0.00,,,0.01,,2013-08-26 22:26:00,
2013-08-26 15:42:00,80.0,56.0,30.10,ENE,61,0.0,4.0,44,0.00,,,0.01,,2013-08-26 22:42:00,
2013-08-26 15:53:00,80.0,56.0,30.09,ESE,123,0.0,4.0,44,0.00,,,0.01,,2013-08-26 22:53:00,
2013-08-26 16:12:00,80.0,57.0,30.09,East,101,0.0,0.0,45,0.00,,,0.01,,2013-08-26 23:12:00,
2013-08-26 16:21:00,80.0,56.0,30.09,East,88,0.0,5.0,44,0.00,,,0.01,,2013-08-26 23:21:00,
2013-08-26 16:52:00,79.0,55.0,30.09,ESE,103,0.0,0.0,44,0.00,,,0.01,,2013-08-26 23:52:00,
2013-08-26 17:11:00,79.0,55.0,30.09,East,94,0.0,1.0,44,0.00,,,0.01,,2013-08-27 00:11:00,
2013-08-26 17:21:00,79.0,55.0,30.09,East,100,0.0,7.0,44,0.00,,,0.01,,2013-08-27 00:21:00,
2013-08-26 17:42:00,79.0,55.0,30.08,SSW,206,0.0,0.0,44,0.00,,,0.01,,2013-08-27 00:42:00,
2013-08-26 17:52:00,79.0,55.0,30.08,SSW,198,0.0,1.0,44,0.00,,,0.01,,2013-08-27 00:52:00,
2013-08-26 18:12:00,80.0,56.0,30.08,SSW,192,1.0,4.0,44,0.00,,,0.01,,2013-08-27 01:12:00,
2013-08-26 18:21:00,79.0,56.0,30.08,SSW,196,2.0,6.0,45,0.00,,,0.01,,2013-08-27 01:21:00,
2013-08-26 18:42:00,77.0,55.0,30.08,SSW,198,0.0,4.0,47,0.00,,,0.01,,2013-08-27 01:42:00,
2013-08-26 18:52:00,76.0,55.0,30.08,SSW,196,2.0,6.0,49,0.00,,,0.01,,2013-08-27 01:52:00,
2013-08-26 19:11:00,75.0,56.0,30.07,SSW,200,1.0,4.0,51,0.00,,,0.01,,2013-08-27 02:11:00,
2013-08-26 19:21:00,74.0,55.0,30.07,SSW,196,1.0,4.0,52,0.00,,,0.01,,2013-08-27 02:21:00,
2013-08-26 19:42:00,73.0,56.0,30.07,SSW,197,0.0,0.0,55,0.00,,,0.01,,2013-08-27 02:42:00,
2013-08-26 19:52:00,72.0,55.0,30.07,SSW,197,0.0,0.0,56,0.00,,,0.01,,2013-08-27 02:52:00,
2013-08-26 20:12:00,70.0,56.0,30.07,SSW,197,0.0,1.0,61,0.00,,,0.01,,2013-08-27 03:12:00,
2013-08-26 20:22:00,69.0,55.0,30.07,SSW,197,0.0,0.0,62,0.00,,,0.01,,2013-08-27 03:22:00,
2013-08-26 20:44:00,68.0,55.0,30.08,SSW,197,0.0,0.0,64,0.00,,,0.01,,2013-08-27 03:44:00,
2013-08-26 20:58:00,67.0,55.0,30.07,SSW,197,0.0,0.0,66,0.00,,,0.01,,2013-08-27 03:58:00,
2013-08-26 21:18:00,65.0,55.0,30.08,SSW,197,0.0,0.0,70,0.00,,,0.01,,2013-08-27 04:18:00,
2013-08-26 21:46:00,64.0,54.0,30.08,SSW,197,0.0,0.0,71,0.00,,,0.01,,2013-08-27 04:46:00,
2013-08-26 21:54:00,63.0,54.0,30.08,SSW,197,0.0,0.0,73,0.00,,,0.01,,2013-08-27 04:54:00,
2013-08-26 22:13:00,63.0,55.0,30.09,SSW,197,0.0,0.0,74,0.00,,,0.01,,2013-08-27 05:13:00,
2013-08-26 22:23:00,62.0,54.0,30.08,SSW,197,0.0,0.0,75,0.00,,,0.01,,2013-08-27 05:23:00,
2013-08-26 22:43:00,62.0,54.0,30.08,SSW,197,0.0,0.0,76,0.00,,,0.01,,2013-08-27 05:43:00,
2013-08-26 22:52:00,61.0,54.0,30.09,SSW,197,0.0,0.0,78,0.00,,,0.01,,2013-08-27 05:52:00,
2013-08-26 23:12:00,61.0,54.0,30.08,SSW,197,0.0,0.0,79,0.00,,,0.01,,2013-08-27 06:12:00,
2013-08-26 23:21:00,60.0,53.0,30.08,SSW,197,0.0,0.0,79,0.00,,,0.01,,2013-08-27 06:21:00,
2013-08-26 23:42:00,60.0,54.0,30.09,SSW,197,0.0,0.0,80,0.00,,,0.01,,2013-08-27 06:42:00,
2013-08-26 23:52:00,60.0,54.0,30.08,SSW,197,0.0,0.0,80,0.00,,,0.01,,2013-08-27 06:52:00,